• In Schweiz
  • Länderverzeichnis
  • Für 7 Tage
  • Wassertemperatur
  • Satellitenkarten
  • Wetterkarte
  • Widgets
  • user-avatar
    Anmelden

    Stündliche Wetter Ogarevskie Vyselki

    Heute, 15 November, Donnerstag

    Zeit Temperatur Niederschläge Wind Luftdruck Luftfeuchtigkeit
    00:00 -6°C° 0 mm 3 m/S 767 mmHg 48%
    01:00 -6°C° 0 mm 3 m/S 767 mmHg 48%
    02:00 -6°C° 0 mm 3 m/S 767 mmHg 48%
    03:00 -5°C° 0 mm 2 m/S 768 mmHg 49%
    04:00 -6°C° 0 mm 2 m/S 768 mmHg 47%
    05:00 -6°C° 0 mm 2 m/S 768 mmHg 46%
    06:00 -6°C° 0 mm 2 m/S 768 mmHg 44%
    07:00 -6°C° 0 mm 2 m/S 769 mmHg 40%
    08:00 -6°C° 0 mm 2 m/S 769 mmHg 37%
    09:00 -6°C° 0 mm 3 m/S 770 mmHg 33%
    10:00 -4°C° 0 mm 2 m/S 770 mmHg 30%
    11:00 -3°C° 0 mm 2 m/S 770 mmHg 27%
    12:00 -3°C° 0 mm 2 m/S 771 mmHg 24%
    13:00 -2°C° 0 mm 2 m/S 771 mmHg 24%
    14:00 -2°C° 0 mm 2 m/S 771 mmHg 25%
    15:00 0°C° 0 mm 1 m/S 771 mmHg 26%
    16:00 -1°C° 0 mm 1 m/S 771 mmHg 27%
    17:00 -1°C° 0 mm 1 m/S 772 mmHg 27%
    18:00 -4°C° 0 mm 2 m/S 772 mmHg 28%
    19:00 -4°C° 0 mm 2 m/S 772 mmHg 28%
    20:00 -3°C° 0 mm 1 m/S 772 mmHg 27%
    21:00 -3°C° 0 mm 1 m/S 773 mmHg 27%
    22:00 -3°C° 0 mm 1 m/S 773 mmHg 27%
    23:00 -3°C° 0 mm 1 m/S 773 mmHg 27%

    Morgen, 16 November, Freitag

    Zeit Temperatur Niederschläge Wind Luftdruck Luftfeuchtigkeit
    00:00 -3°C° 0 mm 1 m/S 773 mmHg 26%
    01:00 -3°C° 0 mm 1 m/S 774 mmHg 27%
    02:00 -4°C° 0 mm 1 m/S 774 mmHg 27%
    03:00 -4°C° 0 mm 1 m/S 774 mmHg 27%
    04:00 -4°C° 0 mm 1 m/S 774 mmHg 27%
    05:00 -4°C° 0 mm 1 m/S 774 mmHg 27%
    06:00 -4°C° 0 mm 1 m/S 774 mmHg 27%
    07:00 -4°C° 0 mm 1 m/S 774 mmHg 27%
    08:00 -5°C° 0 mm 0 m/S 775 mmHg 26%
    09:00 -4°C° 0 mm 0 m/S 775 mmHg 25%
    10:00 -3°C° 0 mm 0 m/S 775 mmHg 23%
    11:00 -2°C° 0 mm 0 m/S 775 mmHg 21%
    12:00 -1°C° 0 mm 0 m/S 775 mmHg 19%
    13:00 -1°C° 0 mm 0 m/S 775 mmHg 20%
    14:00 -1°C° 0 mm 0 m/S 775 mmHg 20%
    15:00 -1°C° 0 mm 0 m/S 775 mmHg 21%
    16:00 -2°C° 0 mm 0 m/S 775 mmHg 21%
    17:00 -2°C° 0 mm 0 m/S 775 mmHg 22%
    18:00 -2°C° 0 mm 1 m/S 775 mmHg 23%
    19:00 -2°C° 0 mm 1 m/S 774 mmHg 23%
    20:00 -2°C° 0 mm 1 m/S 774 mmHg 23%
    21:00 -2°C° 0 mm 1 m/S 774 mmHg 22%
    22:00 -2°C° 0 mm 1 m/S 774 mmHg 22%
    23:00 -3°C° 0 mm 1 m/S 774 mmHg 22%

    übermorgen, 17 November, Samstag

    Zeit Temperatur Niederschläge Wind Luftdruck Luftfeuchtigkeit
    00:00 -3°C° 0 mm 1 m/S 773 mmHg 22%
    01:00 -3°C° 0 mm 1 m/S 773 mmHg 22%
    02:00 -3°C° 0 mm 1 m/S 773 mmHg 22%
    03:00 -5°C° 0 mm 2 m/S 773 mmHg 22%
    04:00 -5°C° 0 mm 2 m/S 772 mmHg 22%
    05:00 -5°C° 0 mm 2 m/S 772 mmHg 22%
    06:00 -5°C° 0 mm 2 m/S 772 mmHg 22%
    07:00 -4°C° 0 mm 2 m/S 771 mmHg 22%
    08:00 -4°C° 0 mm 2 m/S 771 mmHg 22%
    09:00 -4°C° 0 mm 2 m/S 770 mmHg 22%
    10:00 -4°C° 0 mm 3 m/S 770 mmHg 21%
    11:00 -2°C° 0 mm 3 m/S 769 mmHg 20%
    12:00 0°C° 0 mm 3 m/S 769 mmHg 19%
    13:00 0°C° 0 mm 3 m/S 768 mmHg 20%
    14:00 0°C° 0 mm 3 m/S 767 mmHg 20%
    15:00 0°C° 0 mm 3 m/S 767 mmHg 21%
    16:00 -1°C° 0 mm 3 m/S 766 mmHg 22%
    17:00 -1°C° 0 mm 3 m/S 765 mmHg 23%
    18:00 -3°C° 0 mm 4 m/S 764 mmHg 24%
    19:00 -3°C° 0 mm 4 m/S 764 mmHg 25%
    20:00 -3°C° 0 mm 4 m/S 763 mmHg 27%
    21:00 -3°C° 0 mm 4 m/S 763 mmHg 28%
    22:00 -3°C° 0 mm 4 m/S 762 mmHg 29%
    23:00 -3°C° 0 mm 4 m/S 761 mmHg 31%

    18 November, Sonntag

    Zeit Temperatur Niederschläge Wind Luftdruck Luftfeuchtigkeit
    00:00 -3°C° 0 mm 4 m/S 761 mmHg 33%
    01:00 -3°C° 0 mm 4 m/S 760 mmHg 34%
    02:00 -3°C° 0 mm 4 m/S 760 mmHg 34%
    03:00 -3°C° 0 mm 4 m/S 759 mmHg 35%
    04:00 -2°C° 0 mm 3 m/S 759 mmHg 34%
    05:00 -4°C° 0 mm 3 m/S 758 mmHg 34%
    06:00 -4°C° 0 mm 3 m/S 758 mmHg 33%
    07:00 -4°C° 0 mm 3 m/S 758 mmHg 33%
    08:00 -4°C° 0 mm 3 m/S 757 mmHg 33%
    09:00 -4°C° 0 mm 3 m/S 757 mmHg 33%
    10:00 -2°C° 0 mm 3 m/S 757 mmHg 33%
    11:00 -1°C° 0 mm 3 m/S 757 mmHg 33%
    12:00 -1°C° 0 mm 3 m/S 757 mmHg 33%
    13:00 -1°C° 0 mm 3 m/S 758 mmHg 34%
    14:00 -1°C° 0 mm 2 m/S 758 mmHg 35%
    15:00 -1°C° 0 mm 2 m/S 758 mmHg 36%
    16:00 -1°C° 0 mm 2 m/S 758 mmHg 37%
    17:00 -2°C° 0 mm 2 m/S 758 mmHg 37%
    18:00 -3°C° 0 mm 2 m/S 759 mmHg 37%
    19:00 -3°C° 0 mm 2 m/S 759 mmHg 36%
    20:00 -1°C° 0 mm 1 m/S 759 mmHg 36%
    21:00 -1°C° 0 mm 1 m/S 760 mmHg 35%
    22:00 -2°C° 0 mm 1 m/S 760 mmHg 35%
    23:00 -2°C° 0 mm 1 m/S 761 mmHg 34%

    19 November, Montag

    Zeit Temperatur Niederschläge Wind Luftdruck Luftfeuchtigkeit
    00:00 -2°C° 0 mm 1 m/S 761 mmHg 34%
    01:00 -2°C° 0 mm 1 m/S 762 mmHg 34%
    02:00 -2°C° 0 mm 1 m/S 762 mmHg 34%
    03:00 -2°C° 0 mm 1 m/S 762 mmHg 34%
    04:00 -3°C° 0 mm 1 m/S 763 mmHg 34%
    05:00 -3°C° 0 mm 1 m/S 763 mmHg 34%
    06:00 -3°C° 0 mm 1 m/S 764 mmHg 34%
    07:00 -3°C° 0 mm 1 m/S 764 mmHg 33%
    08:00 -3°C° 0 mm 1 m/S 765 mmHg 33%
    09:00 -3°C° 0 mm 1 m/S 765 mmHg 33%
    10:00 -2°C° 0 mm 1 m/S 766 mmHg 31%
    11:00 -1°C° 0 mm 1 m/S 766 mmHg 29%
    12:00 +1°C° 0 mm 1 m/S 767 mmHg 27%
    13:00 0°C° 0 mm 1 m/S 767 mmHg 28%
    14:00 0°C° 0 mm 1 m/S 767 mmHg 30%
    15:00 0°C° 0 mm 1 m/S 767 mmHg 31%
    16:00 -1°C° 0 mm 1 m/S 768 mmHg 34%
    17:00 -1°C° 0 mm 1 m/S 768 mmHg 38%
    18:00 -2°C° 0 mm 1 m/S 768 mmHg 41%
    19:00 -2°C° 0 mm 1 m/S 768 mmHg 45%
    20:00 -2°C° 0 mm 1 m/S 768 mmHg 49%
    21:00 -2°C° 0 mm 1 m/S 768 mmHg 54%
    22:00 -2°C° 0 mm 1 m/S 769 mmHg 58%
    23:00 -2°C° 0 mm 1 m/S 769 mmHg 63%

    20 November, Dienstag

    Zeit Temperatur Niederschläge Wind Luftdruck Luftfeuchtigkeit
    00:00 -2°C° 0 mm 1 m/S 769 mmHg 68%
    01:00 -2°C° 0 mm 1 m/S 769 mmHg 72%
    02:00 -2°C° 0 mm 1 m/S 769 mmHg 77%
    03:00 -2°C° 0 mm 1 m/S 769 mmHg 81%
    04:00 -2°C° 0 mm 1 m/S 769 mmHg 84%
    05:00 -2°C° 0 mm 1 m/S 769 mmHg 88%
    06:00 -2°C° 0 mm 1 m/S 769 mmHg 91%
    07:00 -1°C° 0 mm 1 m/S 769 mmHg 92%
    08:00 -1°C° 0 mm 1 m/S 769 mmHg 93%
    09:00 -1°C° 0 mm 1 m/S 769 mmHg 94%
    10:00 0°C° 0 mm 1 m/S 769 mmHg 91%
    11:00 +1°C° 0 mm 1 m/S 769 mmHg 88%
    12:00 +1°C° 0 mm 1 m/S 768 mmHg 85%
    13:00 +1°C° 0 mm 1 m/S 768 mmHg 86%
    14:00 +1°C° 0 mm 1 m/S 768 mmHg 87%
    15:00 +1°C° 0 mm 1 m/S 768 mmHg 89%
    16:00 +1°C° 0 mm 1 m/S 768 mmHg 91%
    17:00 0°C° 0 mm 1 m/S 767 mmHg 93%
    18:00 0°C° 0 mm 1 m/S 767 mmHg 95%
    19:00 0°C° 0 mm 1 m/S 767 mmHg 95%
    20:00 0°C° 0 mm 1 m/S 767 mmHg 95%
    21:00 0°C° 0 mm 1 m/S 767 mmHg 96%
    22:00 -1°C° 0 mm 0 m/S 767 mmHg 96%
    23:00 -1°C° 0 mm 0 m/S 766 mmHg 96%
    Mehr zeigen